Location: *
(51.8167°N, 12.5000°E)
Time: 15:09:42
(UTC+00:00)

USA 234 - Pass Details

Date: 16 September 2019
Orbit: 1103 x 1105 km, 123.0° (Epoch: 06 October)

Event Time Altitude Azimuth Distance (km) Brightness Sun altitude
Exits shadow 19:54:51 27° 80° (E) 1,978 4.2 -22.5°
Maximum altitude 19:58:30 61° 10° (N) 1,242 3.6 -23.0°
Drops below altitude 10° 20:04:56 10° 292° (WNW) 2,968 6.5 -23.7°
Sets 20:07:26 0° 289° (WNW) 3,926 7.3 -24.0°
